TimeCDT,TemperatureF,Dew PointF,Humidity,Sea Level PressureIn,VisibilityMPH,Wind Direction,Wind SpeedMPH,Gust SpeedMPH,PrecipitationIn,Events,Conditions,WindDirDegrees,DateUTC
12:15 AM,44.6,42.8,93,29.98,10.0,Calm,Calm,-,N/A,,Clear,0,2012-11-02 05:15:00
12:35 AM,42.8,42.8,100,29.98,10.0,North,-9999.0,-,N/A,,Clear,0,2012-11-02 05:35:00
12:55 AM,42.8,42.8,100,29.98,10.0,Calm,Calm,-,N/A,,Clear,0,2012-11-02 05:55:00
1:15 AM,42.8,42.8,100,29.98,10.0,Calm,Calm,-,N/A,,Clear,0,2012-11-02 06:15:00
1:35 AM,42.8,41.0,93,29.98,10.0,Calm,Calm,-,N/A,,Clear,0,2012-11-02 06:35:00
1:55 AM,42.8,41.0,93,29.97,9.0,Calm,Calm,-,N/A,,Clear,0,2012-11-02 06:55:00
2:15 AM,42.8,41.0,93,29.97,9.0,Calm,Calm,-,N/A,,Clear,0,2012-11-02 07:15:00
2:35 AM,42.8,41.0,93,29.97,8.0,Calm,Calm,-,N/A,,Clear,0,2012-11-02 07:35:00
2:55 AM,41.0,41.0,100,29.97,8.0,Calm,Calm,-,N/A,,Clear,0,2012-11-02 07:55:00
3:15 AM,41.0,39.2,93,29.97,8.0,Calm,Calm,-,N/A,,Clear,0,2012-11-02 08:15:00
3:35 AM,41.0,39.2,93,29.97,8.0,Calm,Calm,-,N/A,,Clear,0,2012-11-02 08:35:00
3:55 AM,41.0,39.2,93,29.97,7.0,Calm,Calm,-,N/A,,Clear,0,2012-11-02 08:55:00
4:15 AM,41.0,39.2,93,29.97,7.0,Calm,Calm,-,N/A,,Clear,0,2012-11-02 09:15:00
4:35 AM,41.0,39.2,93,29.97,7.0,Calm,Calm,-,N/A,,Clear,0,2012-11-02 09:35:00
4:55 AM,39.2,39.2,100,29.97,7.0,Calm,Calm,-,N/A,,Clear,0,2012-11-02 09:55:00
5:15 AM,39.2,39.2,100,29.97,7.0,Calm,Calm,-,N/A,,Clear,0,2012-11-02 10:15:00
5:35 AM,39.2,39.2,100,29.97,7.0,Calm,Calm,-,N/A,,Clear,0,2012-11-02 10:35:00
5:55 AM,39.2,39.2,100,29.98,7.0,Calm,Calm,-,N/A,,Clear,0,2012-11-02 10:55:00
6:15 AM,39.2,39.2,100,29.98,7.0,Calm,Calm,-,N/A,,Clear,0,2012-11-02 11:15:00
6:35 AM,39.2,39.2,100,29.98,6.0,Calm,Calm,-,N/A,,Clear,0,2012-11-02 11:35:00
6:55 AM,39.2,37.4,93,29.99,7.0,Calm,Calm,-,N/A,,Clear,0,2012-11-02 11:55:00
7:15 AM,39.2,39.2,100,29.98,7.0,Calm,Calm,-,N/A,,Clear,0,2012-11-02 12:15:00
7:35 AM,39.2,37.4,93,29.99,7.0,Calm,Calm,-,N/A,,Clear,0,2012-11-02 12:35:00
8:55 AM,44.6,42.8,93,30.01,8.0,Calm,Calm,-,N/A,,Clear,0,2012-11-02 13:55:00
9:15 AM,46.4,44.6,93,30.02,9.0,Calm,Calm,-,N/A,,Clear,0,2012-11-02 14:15:00
9:35 AM,48.2,44.6,87,30.02,10.0,Calm,Calm,-,N/A,,Clear,0,2012-11-02 14:35:00
9:55 AM,51.8,46.4,82,30.02,10.0,Calm,Calm,-,N/A,,Clear,0,2012-11-02 14:55:00
10:15 AM,55.4,48.2,77,30.02,10.0,Calm,Calm,-,N/A,,Clear,0,2012-11-02 15:15:00
10:35 AM,59.0,50.0,72,30.02,10.0,Calm,Calm,-,N/A,,Clear,0,2012-11-02 15:35:00
10:55 AM,62.6,50.0,63,30.01,10.0,Calm,Calm,-,N/A,,Clear,0,2012-11-02 15:55:00
11:15 AM,66.2,50.0,56,30.01,10.0,Calm,Calm,-,N/A,,Clear,0,2012-11-02 16:15:00
11:35 AM,68.0,50.0,52,30.01,10.0,ESE,4.6,-,N/A,,Clear,120,2012-11-02 16:35:00
11:55 AM,69.8,50.0,49,30.01,10.0,SE,4.6,-,N/A,,Clear,130,2012-11-02 16:55:00
12:15 PM,69.8,50.0,49,30.00,10.0,East,3.5,-,N/A,,Clear,100,2012-11-02 17:15:00
12:35 PM,71.6,51.8,50,30.00,10.0,SSE,4.6,-,N/A,,Clear,160,2012-11-02 17:35:00
12:55 PM,71.6,51.8,50,29.99,10.0,SSE,3.5,-,N/A,,Clear,150,2012-11-02 17:55:00
1:15 PM,73.4,48.2,41,29.98,10.0,ENE,3.5,-,N/A,,Clear,70,2012-11-02 18:15:00
1:35 PM,73.4,50.0,44,29.98,10.0,East,5.8,-,N/A,,Clear,90,2012-11-02 18:35:00
1:55 PM,75.2,51.8,44,29.97,10.0,East,5.8,-,N/A,,Clear,100,2012-11-02 18:55:00
2:15 PM,75.2,51.8,44,29.96,10.0,East,8.1,-,N/A,,Clear,100,2012-11-02 19:15:00
2:35 PM,75.2,51.8,44,29.95,10.0,ESE,5.8,-,N/A,,Clear,120,2012-11-02 19:35:00
2:55 PM,75.2,51.8,44,29.95,10.0,East,5.8,-,N/A,,Clear,100,2012-11-02 19:55:00
3:15 PM,77.0,51.8,41,29.94,10.0,East,4.6,-,N/A,,Clear,100,2012-11-02 20:15:00
3:35 PM,77.0,51.8,41,29.94,10.0,East,6.9,-,N/A,,Clear,90,2012-11-02 20:35:00
3:55 PM,78.8,53.6,42,29.94,10.0,SE,4.6,-,N/A,,Clear,130,2012-11-02 20:55:00
4:15 PM,77.0,53.6,44,29.93,10.0,South,5.8,-,N/A,,Clear,170,2012-11-02 21:15:00
4:35 PM,77.0,53.6,44,29.94,10.0,SSE,8.1,-,N/A,,Clear,150,2012-11-02 21:35:00
4:55 PM,75.2,53.6,47,29.94,10.0,SSE,5.8,-,N/A,,Clear,150,2012-11-02 21:55:00
5:15 PM,73.4,55.4,53,29.94,10.0,SE,4.6,-,N/A,,Clear,130,2012-11-02 22:15:00
5:35 PM,73.4,53.6,50,29.94,10.0,SSE,4.6,-,N/A,,Clear,150,2012-11-02 22:35:00
5:55 PM,71.6,53.6,53,29.94,10.0,ESE,3.5,-,N/A,,Clear,120,2012-11-02 22:55:00
6:15 PM,69.8,53.6,56,29.95,10.0,East,3.5,-,N/A,,Clear,100,2012-11-02 23:15:00
6:35 PM,66.2,53.6,64,29.95,10.0,East,4.6,-,N/A,,Clear,100,2012-11-02 23:35:00
6:55 PM,64.4,53.6,68,29.96,10.0,Calm,Calm,-,N/A,,Clear,0,2012-11-02 23:55:00
7:35 PM,60.8,53.6,77,29.96,10.0,Calm,Calm,-,N/A,,Clear,0,2012-11-03 00:35:00
7:55 PM,57.2,53.6,88,29.97,10.0,Calm,Calm,-,N/A,,Clear,0,2012-11-03 00:55:00
8:15 PM,57.2,53.6,88,29.97,10.0,Calm,Calm,-,N/A,,Clear,0,2012-11-03 01:15:00
8:35 PM,55.4,53.6,94,29.97,10.0,Calm,Calm,-,N/A,,Clear,0,2012-11-03 01:35:00
8:55 PM,55.4,51.8,88,29.97,10.0,Calm,Calm,-,N/A,,Clear,0,2012-11-03 01:55:00
9:35 PM,53.6,51.8,94,29.97,10.0,Calm,Calm,-,N/A,,Clear,0,2012-11-03 02:35:00
9:55 PM,53.6,51.8,94,29.98,10.0,Calm,Calm,-,N/A,,Clear,0,2012-11-03 02:55:00
10:15 PM,51.8,50.0,94,29.98,9.0,Calm,Calm,-,N/A,,Clear,0,2012-11-03 03:15:00
10:35 PM,51.8,50.0,94,29.98,10.0,Calm,Calm,-,N/A,,Clear,0,2012-11-03 03:35:00
10:55 PM,51.8,50.0,94,29.98,9.0,Calm,Calm,-,N/A,,Clear,0,2012-11-03 03:55:00
11:15 PM,51.8,48.2,88,29.98,9.0,Calm,Calm,-,N/A,,Clear,0,2012-11-03 04:15:00
11:35 PM,50.0,48.2,94,29.98,9.0,Calm,Calm,-,N/A,,Clear,0,2012-11-03 04:35:00